TimeCST,TemperatureF,Dew PointF,Humidity,Sea Level PressureIn,VisibilityMPH,Wind Direction,Wind SpeedMPH,Gust SpeedMPH,PrecipitationIn,Events,Conditions,WindDirDegrees,DateUTC
12:54 AM,28.0,25.0,88,30.25,10.0,Calm,Calm,-,N/A,,Clear,0,2013-12-28 06:54:00
1:54 AM,27.0,26.1,96,30.24,10.0,Calm,Calm,-,N/A,,Clear,0,2013-12-28 07:54:00
2:54 AM,28.0,26.1,92,30.24,10.0,Calm,Calm,-,N/A,,Clear,0,2013-12-28 08:54:00
3:54 AM,25.0,24.1,96,30.22,10.0,Calm,Calm,-,N/A,,Clear,0,2013-12-28 09:54:00
4:54 AM,26.1,23.0,88,30.22,10.0,ESE,3.5,-,N/A,,Clear,120,2013-12-28 10:54:00
5:54 AM,25.0,23.0,92,30.21,10.0,East,4.6,-,N/A,,Clear,80,2013-12-28 11:54:00
6:54 AM,24.1,21.9,91,30.21,10.0,ENE,3.5,-,N/A,,Clear,60,2013-12-28 12:54:00
7:54 AM,25.0,23.0,92,30.21,10.0,NE,3.5,-,N/A,,Clear,40,2013-12-28 13:54:00
8:54 AM,36.0,32.0,86,30.20,10.0,East,3.5,-,N/A,,Clear,80,2013-12-28 14:54:00
9:54 AM,42.1,30.0,62,30.18,10.0,SSW,3.5,-,N/A,,Clear,210,2013-12-28 15:54:00
10:54 AM,48.0,30.0,50,30.17,10.0,SSW,9.2,-,N/A,,Clear,210,2013-12-28 16:54:00
11:54 AM,52.0,30.9,45,30.12,10.0,SSW,8.1,-,N/A,,Clear,200,2013-12-28 17:54:00
12:54 PM,55.9,30.9,39,30.08,10.0,SSW,10.4,-,N/A,,Clear,210,2013-12-28 18:54:00
1:54 PM,57.0,28.9,34,30.05,10.0,South,10.4,19.6,N/A,,Clear,180,2013-12-28 19:54:00
2:54 PM,57.0,30.0,36,30.04,10.0,South,12.7,-,N/A,,Clear,190,2013-12-28 20:54:00
3:54 PM,48.9,32.0,52,30.01,10.0,SE,4.6,-,N/A,,Clear,140,2013-12-28 21:54:00
4:54 PM,41.0,33.1,73,30.00,10.0,ESE,5.8,-,N/A,,Clear,120,2013-12-28 22:54:00
5:54 PM,37.0,28.9,73,30.00,10.0,SSE,10.4,-,N/A,,Clear,160,2013-12-28 23:54:00
6:54 PM,39.9,28.9,65,29.99,10.0,SE,5.8,-,N/A,,Clear,130,2013-12-29 00:54:00
7:54 PM,37.9,28.9,70,29.98,10.0,SE,6.9,-,N/A,,Clear,140,2013-12-29 01:54:00
8:54 PM,36.0,28.0,73,29.95,10.0,Calm,Calm,-,N/A,,Clear,0,2013-12-29 02:54:00
9:54 PM,35.1,28.0,76,29.94,10.0,East,5.8,-,N/A,,Clear,90,2013-12-29 03:54:00
10:54 PM,34.0,30.0,85,29.94,10.0,East,8.1,-,N/A,,Clear,100,2013-12-29 04:54:00
11:54 PM,32.0,28.9,88,29.91,10.0,NNE,4.6,-,N/A,,Clear,30,2013-12-29 05:54:00